TimeCST,TemperatureF,Dew PointF,Humidity,Sea Level PressureIn,VisibilityMPH,Wind Direction,Wind SpeedMPH,Gust SpeedMPH,PrecipitationIn,Events,Conditions,WindDirDegrees,DateUTC
12:15 AM,29.3,27.0,91,30.26,10.0,Calm,Calm,-,N/A,,Clear,0,2013-03-03 06:15:00
12:35 AM,29.1,27.0,92,30.26,10.0,Calm,Calm,-,N/A,,Clear,0,2013-03-03 06:35:00
12:55 AM,29.1,26.4,90,30.25,10.0,Calm,Calm,-,N/A,,Clear,0,2013-03-03 06:55:00
1:35 AM,30.9,28.6,91,30.26,10.0,Calm,Calm,-,N/A,,Clear,0,2013-03-03 07:35:00
1:55 AM,28.9,27.0,92,30.26,10.0,Calm,Calm,-,N/A,,Clear,0,2013-03-03 07:55:00
2:15 AM,28.4,26.8,94,30.26,10.0,Calm,Calm,-,N/A,,Clear,0,2013-03-03 08:15:00
2:35 AM,28.4,27.5,96,30.26,10.0,Calm,Calm,-,N/A,,Clear,0,2013-03-03 08:35:00
2:55 AM,28.0,27.3,97,30.25,10.0,Calm,Calm,-,N/A,,Clear,0,2013-03-03 08:55:00
3:15 AM,27.5,27.0,98,30.25,10.0,Calm,Calm,-,N/A,,Clear,0,2013-03-03 09:15:00
3:35 AM,27.5,27.0,98,30.26,10.0,Calm,Calm,-,N/A,,Clear,0,2013-03-03 09:35:00
3:55 AM,27.3,26.6,97,30.25,10.0,Calm,Calm,-,N/A,,Clear,0,2013-03-03 09:55:00
4:15 AM,27.1,26.6,98,30.25,10.0,Calm,Calm,-,N/A,,Clear,0,2013-03-03 10:15:00
4:35 AM,27.1,26.4,97,30.27,10.0,Calm,Calm,-,N/A,,Clear,0,2013-03-03 10:35:00
4:55 AM,26.6,25.9,97,30.27,10.0,Calm,Calm,-,N/A,,Clear,0,2013-03-03 10:55:00
5:15 AM,27.0,25.5,94,30.27,10.0,Calm,Calm,-,N/A,,Clear,0,2013-03-03 11:15:00
6:15 AM,25.7,24.8,96,30.27,10.0,Calm,Calm,-,N/A,,Clear,0,2013-03-03 12:15:00
6:55 AM,26.1,25.7,99,30.27,7.0,Calm,Calm,-,N/A,,Clear,0,2013-03-03 12:55:00
7:15 AM,27.5,27.1,99,30.27,10.0,Calm,Calm,-,N/A,,Clear,0,2013-03-03 13:15:00
7:35 AM,29.7,27.9,93,30.27,5.0,Calm,Calm,-,N/A,,Clear,0,2013-03-03 13:35:00
7:55 AM,32.0,29.3,90,30.29,10.0,Calm,Calm,-,N/A,,Clear,0,2013-03-03 13:55:00
8:15 AM,33.3,30.6,90,30.29,10.0,Calm,Calm,-,N/A,,Clear,0,2013-03-03 14:15:00
8:35 AM,36.5,31.8,83,30.28,10.0,SSE,4.6,-,N/A,,Clear,160,2013-03-03 14:35:00
8:55 AM,39.0,31.5,74,30.27,10.0,SE,4.6,-,N/A,,Clear,140,2013-03-03 14:55:00
9:15 AM,41.0,31.1,68,30.28,10.0,SE,3.5,-,N/A,,Clear,130,2013-03-03 15:15:00
9:35 AM,42.8,30.7,62,30.28,10.0,SSE,3.5,-,N/A,,Clear,160,2013-03-03 15:35:00
9:55 AM,45.1,30.7,57,30.27,10.0,SE,3.5,-,N/A,,Clear,130,2013-03-03 15:55:00
10:15 AM,46.8,30.7,54,30.27,10.0,ESE,5.8,-,N/A,,Clear,110,2013-03-03 16:15:00
10:35 AM,48.2,30.2,50,30.27,10.0,ESE,3.5,-,N/A,,Clear,120,2013-03-03 16:35:00
10:55 AM,50.2,29.3,45,30.27,10.0,South,4.6,-,N/A,,Clear,170,2013-03-03 16:55:00
11:15 AM,50.9,27.7,41,30.26,10.0,East,4.6,-,N/A,,Clear,100,2013-03-03 17:15:00
11:35 AM,52.9,25.5,35,30.25,10.0,Calm,Calm,-,N/A,,Clear,0,2013-03-03 17:35:00
11:55 AM,54.5,25.3,32,30.24,10.0,SSW,3.5,-,N/A,,Clear,210,2013-03-03 17:55:00
12:15 PM,55.6,26.8,33,30.23,10.0,Calm,Calm,-,N/A,,Clear,0,2013-03-03 18:15:00
12:35 PM,56.1,25.7,31,30.21,10.0,NNE,3.5,-,N/A,,Clear,30,2013-03-03 18:35:00
12:55 PM,56.5,26.1,31,30.19,10.0,NE,4.6,-,N/A,,Clear,50,2013-03-03 18:55:00
1:15 PM,58.6,27.1,30,30.18,10.0,South,6.9,-,N/A,,Clear,180,2013-03-03 19:15:00
1:35 PM,59.4,28.2,31,30.16,10.0,ESE,4.6,-,N/A,,Clear,110,2013-03-03 19:35:00
1:55 PM,59.2,27.7,30,30.15,10.0,ESE,6.9,-,N/A,,Clear,110,2013-03-03 19:55:00
2:35 PM,61.3,27.9,28,30.13,10.0,SE,8.1,-,N/A,,Clear,140,2013-03-03 20:35:00
2:55 PM,61.9,26.8,26,30.12,10.0,West,3.5,-,N/A,,Clear,260,2013-03-03 20:55:00
3:35 PM,63.0,28.0,27,30.10,10.0,SSE,4.6,-,N/A,,Clear,160,2013-03-03 21:35:00
4:15 PM,63.1,29.1,28,30.08,10.0,SSW,6.9,-,N/A,,Clear,200,2013-03-03 22:15:00
4:35 PM,63.5,29.8,28,30.08,10.0,South,6.9,-,N/A,,Clear,180,2013-03-03 22:35:00
4:55 PM,63.0,29.5,28,30.07,10.0,South,9.2,-,N/A,,Clear,190,2013-03-03 22:55:00
5:15 PM,60.4,31.1,33,30.07,10.0,South,6.9,-,N/A,,Clear,180,2013-03-03 23:15:00
5:35 PM,61.0,30.7,32,30.07,10.0,South,6.9,-,N/A,,Clear,180,2013-03-03 23:35:00
5:55 PM,58.6,31.6,36,30.07,10.0,South,5.8,-,N/A,,Clear,180,2013-03-03 23:55:00
6:15 PM,55.6,31.8,41,30.07,10.0,South,8.1,-,N/A,,Clear,180,2013-03-04 00:15:00
6:35 PM,54.1,32.0,43,30.07,10.0,South,6.9,-,N/A,,Clear,170,2013-03-04 00:35:00
6:55 PM,51.3,32.5,49,30.06,10.0,SSE,6.9,-,N/A,,Clear,160,2013-03-04 00:55:00
7:15 PM,50.4,33.8,53,30.06,10.0,SSE,8.1,-,N/A,,Clear,160,2013-03-04 01:15:00
7:35 PM,49.6,33.8,54,30.07,10.0,SSE,6.9,-,N/A,,Clear,160,2013-03-04 01:35:00
7:55 PM,48.9,34.0,56,30.06,10.0,South,9.2,-,N/A,,Clear,170,2013-03-04 01:55:00
8:15 PM,49.6,32.9,53,30.07,10.0,South,8.1,-,N/A,,Clear,170,2013-03-04 02:15:00
8:35 PM,48.7,33.4,56,30.06,10.0,SSE,8.1,-,N/A,,Clear,160,2013-03-04 02:35:00
8:55 PM,47.5,34.3,60,30.06,10.0,SSE,8.1,-,N/A,,Clear,160,2013-03-04 02:55:00
9:15 PM,46.9,33.8,60,30.06,10.0,SSE,8.1,-,N/A,,Clear,160,2013-03-04 03:15:00
9:35 PM,48.4,32.5,54,30.06,10.0,South,9.2,-,N/A,,Clear,170,2013-03-04 03:35:00
9:55 PM,48.9,32.9,54,30.06,10.0,South,9.2,-,N/A,,Clear,180,2013-03-04 03:55:00
10:15 PM,49.1,33.8,56,30.06,10.0,South,10.4,-,N/A,,Clear,180,2013-03-04 04:15:00
10:35 PM,48.6,33.8,57,30.06,10.0,South,8.1,-,N/A,,Clear,180,2013-03-04 04:35:00
10:55 PM,47.8,34.0,59,30.06,10.0,South,6.9,-,N/A,,Clear,180,2013-03-04 04:55:00
11:15 PM,47.3,33.8,59,30.06,10.0,South,5.8,-,N/A,,Clear,180,2013-03-04 05:15:00
11:35 PM,45.7,33.8,63,30.06,10.0,South,5.8,-,N/A,,Clear,170,2013-03-04 05:35:00
11:55 PM,45.5,34.5,65,30.05,10.0,South,5.8,-,N/A,,Clear,180,2013-03-04 05:55:00